カタログに戻る

THEMIS D

運用中科学HEO
NORAD 30797·PAYLOAD·🇺🇸 United States

打ち上げ Feb 17, 2007 から Cape Canaveral Space Force Station

Loading…

次のパス (今後24時間)

TLE

最新Source: Space-Track

元期: Sep 12, 2026, 05:27 UTC

1 30797U 07004D   26255.22743475 -.00000437  00000-0  00000-0 0  9996
2 30797   8.2039  75.3535 8306628 245.2974  25.1042  0.87844675 41844

AllMySatでTHEMIS Dをリアルタイム追跡

Download on the App Store